Regional Weather Roundup
Issued by NWS

Home | Current Version | Previous Version | Graphics & Text | Print | Product List | Glossary On
Versions: 1 2 3 4 5 6 7 8 9 10 11 12 13 14 15 16 17 18 19 20 21 22 23 24 25 26 27 28 29 30 31 32 33 34 35 36 37 38 39 40 41 42 43 44 45 46 47 48 49 50
000
ASUS45 KCYS 270910
RWRWY

WYOMING REGIONAL WEATHER ROUNDUP
NATIONAL WEATHER SERVICE CHEYENNE WY
300 AM MDT FRI MAR 27 2015

NOTE:  "FAIR" INDICATES FEW OR NO CLOUDS BELOW 12,000 FEET
WITH NO SIGNIFICANT WEATHER AND/OR OBSTRUCTIONS TO VISIBILITY.

WYZ001-271000-
YELLOWSTONE NATIONAL PARK

CITY           SKY/WX    TMP DP  RH WIND       PRES   REMARKS
LK YELLOWSTONE   N/A     25  22  88 CALM      30.37R
W YELLOWSTONE  NOT AVBL

$$
WYZ002>013-054>058-071-098>099-271000-
NORTHERN WYOMING

CITY           SKY/WX    TMP DP  RH WIND       PRES   REMARKS
JACKSON        FAIR      30  30 100 N9        30.34S WCI  22
CODY           FAIR      54  28  37 NW3G17    30.15R
GREYBULL       FAIR      40  31  70 CALM      30.13R
WORLAND        FAIR      41  30  65 S8        30.14R
SHERIDAN       FAIR      46  36  68 SW5       30.11R
BUFFALO        MOCLDY    46  35  65 VRB7      30.12S
GILLETTE       CLOUDY    45  40  82 W12       30.08F
HULETT         CLOUDY    41  37  87 SW10      30.08F
NEWCASTLE      DRIZZLE   36  36 100 SE3       30.14S

$$
WYZ014>020-022>026-101>103-271000-
CENTRAL WYOMING

CITY           SKY/WX    TMP DP  RH WIND       PRES   REMARKS
BIG PINEY      FAIR      32  26  78 N9        30.33S WCI  24
PINEDALE       PTSUNNY   34  28  80 NW14      30.33S WCI  24
DUBOIS         FAIR      41  28  60 W17       30.28F
LANDER         FAIR      39  26  59 CALM      30.18F
RIVERTON       FAIR      49  30  48 NW20      30.17F
CASPER         CLOUDY    46  30  53 SW10      30.16F
DOUGLAS        CLOUDY    46  32  58 NW9       30.13F

$$
WYZ021-027>030-104>119-271000-
SOUTHERN WYOMING

CITY           SKY/WX    TMP DP  RH WIND       PRES   REMARKS
EVANSTON       FAIR      36  25  64 S6        30.38F WCI  31
KEMMERER       FAIR      34  30  86 NW3       30.36S
FORT BRIDGER   FAIR      43  29  57 W15       30.39S
ROCK SPRINGS   FAIR      38  28  67 W22       30.31S WCI  27
DIXON          FAIR      30  27  88 CALM      30.35S
RAWLINS        FAIR      37  27  67 VRB7      30.27S WCI  32
SARATOGA       FAIR      36  28  75 SE5       30.28S WCI  32
LARAMIE        CLOUDY    37  28  70 W6        30.22S WCI  32
CHEYENNE       CLOUDY    46  28  49 W14       30.16F
TORRINGTON     CLOUDY    39  31  72 E9        30.13S WCI  33
PINE BLUFFS    CLOUDY    41  30  65 SW9       30.14F

$$


USA.gov is the U.S. government's official web portal to all federal, state and local government web resources and services.